Rbgn^[z[y[W
メイン
   新天体発見情報
     Comet C/2023 B2 (ATLAS)
投稿するにはまず登録を

スレッド表示 | 新しいものから 前のトピック | 次のトピック | 下へ
投稿者 スレッド
佐藤裕久
投稿日時: 2023-2-26 21:40
モデレータ
登録日: 2005-6-12
居住地: 日本
投稿: 2689
オンライン
Comet C/2023 B2 (ATLAS)

1月21日UT、南アフリカ Sutherlandにある小惑星地球衝突最終警報システム Asteroid 
Terrestrial-impact Last Alert System (ATLAS)調査プログラムのコースに0.5-m f/2 
Schmidt反射望遠鏡で得たCCD画像から小惑星状天体が発見された。
小惑星センターのPCCP webpageに公表後、R. Weryk (西オンタリオ大学,物理および天
文学科)の報告によると、2022年11月16.6日UT、HaleakalaにあるPan-STARRS1の1.8-m 
Ritchey-Chretien 反射望遠鏡で得た画像から3個の発見前観測でこの彗星は、21.7等、
"彗星かどうか判断するのは難しい"としながらも、小惑星の等級を推測するよりもずっ
と暗く見えると付け加えた。
佐藤英貴氏(東京都文京区、2023年1月23.61日UT, 60-秒露出10枚のスタック, 0.51-m 
f/6.8 アストログラフ, Siding Spring, NSW, オーストラリア, 遠隔操作: 中程度に
集光した10"のコマが見えるが尾はない。5".4の円形範囲で測定した光度は17.9等で
あった)や吉本勝己氏 (山口県熊毛郡平生町,1月25.6日UT, 120-秒露出11枚のスタック, 
0.50-m f/6.8 反射望遠鏡, Siding Spring, NSW, オートラリア,遠隔操作: 集光した11"
のコマが見え、全光度は17.7等で、p.a. 290°に10"の尾がある)らCCD位置観測者によっ
て彗星状と観測された。

彗星機能の報告は次のとおり、

OC   Date        Reporter           Coma    Tail    PA          Exposures
Q62  2023-01-25  K. Yoshimoto      11"       10"    290          11x120s
W88  2023-01-28  B. Lutkenhoner     6"                           19x50s
X02  2023-02-02  E. Bryssinck       6"        6"    302          20x90s

発見位置は次のとおり、

     2023 UT             R.A. (2000) Decl.       Mag.
     Jan. 21.96831   10 42 45.00   -53 03 56.4   18.8
          21.97056   10 42 45.16   -53 03 58.5   18.8
          21.97373   10 42 45.32   -53 04 01.2   18.7
          21.98381   10 42 46.22   -53 04 09.7   18.8

MPCの楕円軌道要素、位置推算表は次のとおり、

Orbital elements:
    C/2023 B2 (ATLAS)                                                           
Epoch 2023 Feb. 25.0 TT = JDT 2460000.5                                         
T 2023 Mar. 10.51779 TT                                 Rudenko                 
q   1.7427453            (2000.0)            P               Q                  
z  +0.0020578      Peri.  317.42333     -0.89564640     -0.18819883             
 +/-0.0001803      Node   218.10693     +0.12872485     -0.97697228             
e   0.9964138      Incl.   40.76825     -0.42573165     +0.10053045             
From 58 observations 2022 Nov. 16-2023 Feb. 5, mean residual 0".4.              
                                                                                
Ephemeris:
Date    TT    R. A. (2000) Decl.     Delta      r    Elong.  Phase   m1
2023 01 08    10 22 48.8 -49 04 39   1.5252  1.9150    97.2    30.6  18.2
...
2023 01 23    10 44 10.1 -53 18 53   1.3889  1.8439   100.6    31.6  17.9
...
2023 01 31    10 54 56.3 -54 59 49   1.3187  1.8129   102.8    32.0  17.7
...
2023 02 06    11 02 40.3 -55 55 53   1.2669  1.7931   104.8    32.1  17.5
2023 02 07    11 03 55.7 -56 03 25   1.2584  1.7901   105.1    32.1  17.5
2023 02 08    11 05 10.5 -56 10 24   1.2498  1.7872   105.5    32.1  17.5
...
2023 02 14    11 12 26.2 -56 40 11   1.1989  1.7716   107.9    32.0  17.4
...
2023 02 22    11 21 29.5 -56 43 50   1.1324  1.7559   111.5    31.6  17.2
...
2023 03 09    11 36 42.2 -54 36 25   1.0157  1.7429   120.4    29.4  16.9

(MPEC 2023-C44、CBET 5217)

スレッド表示 | 新しいものから 前のトピック | 次のトピック | トップ

投稿するにはまず登録を
 
© 1999 Tsutomu Seki.